Location: São Paulo
(23.5507°S, 46.6334°W)
Time: 07:59:39
(UTC-03:00)

Vanguard 3 - Pass Details

Date: 25 February 2026
Orbit: 507 x 3205 km, 33.4° (Epoch: 7 March)

Event Time Altitude Azimuth Distance (km) Brightness Sun altitude
Exits shadow 02:37:07 46° 151° (SSE) 1,777 8.9 -43.2°
Drops below altitude 10° 02:45:48 10° 116° (ESE) 4,393 11.5 -41.6°
Sets 02:50:30 0° 111° (ESE) 5,854 12.3 -40.8°
